Regional Weather Roundup
Issued by NWS

Home | Current Version | Previous Version | Graphics & Text | Print | Product List | Glossary On
Versions: 1 2 3 4 5 6 7 8 9 10 11 12 13 14 15 16 17 18 19 20 21 22 23 24 25 26 27 28 29 30 31 32 33 34 35 36 37 38 39 40 41 42 43 44 45 46 47 48 49 50
000
ASUS43 KDMX 052006
RWRIA

WEATHER ROUNDUP FOR IOWA
NATIONAL WEATHER SERVICE DES MOINES IA
200 PM CST MON DEC 05 2016

NOTE: "FAIR" INDICATES FEW OR NO CLOUDS BELOW 12,000 FEET WITH NO
SIGNIFICANT WEATHER AND/OR OBSTRUCTIONS TO VISIBILITY.

* - THESE STATIONS ARE NOT NWS STATIONS...THUS NOT UNDER NWS
QUALITY CONTROL.  THEY ALSO DO NOT REPORT WEATHER SUCH
AS PRECIPITATION OR FOG.

IAZ001>003-012>014-020>022-031>034-043>046-052100-
   NORTHWEST IOWA

CITY           SKY/WX    TMP DP  RH WIND       PRES   REMARKS
CARROLL *      CLOUDY    46  37  71 S18G31    29.67S
CHEROKEE *     CLOUDY    45  34  66 S23G31    29.58F
DENISON *      MOSUNNY   46  36  66 S21G36    29.62R
LE MARS *      CLOUDY    45  34  65 S23G30    29.55F
ORANGE CITY *  CLOUDY    43  36  75 S26G33    29.53S
SHELDON *      CLOUDY    45  34  65 S22G33    29.52R
SIOUX CITY     CLOUDY    46  35  65 S21G31    29.59S
SPENCER        CLOUDY    46  34  62 S31G41    29.56F
STORM LAKE *   MOSUNNY   45  36  70 S23G32    29.61R
$$

IAZ055>058-069>071-079>083-090>094-052100-
   SOUTHWEST IOWA

CITY           SKY/WX    TMP DP  RH WIND       PRES   REMARKS
ATLANTIC *     MOSUNNY   50  34  53 S23G32    29.68F
AUDUBON *      CLOUDY    48  34  57 S16G25    29.69S
CLARINDA *       N/A     52  39  62 S22G31    29.74F
COUNCIL BLFS * PTSUNNY   48  36  61 S18G25    29.66S
CRESTON *      SUNNY     50  37  62 S17G29    29.75S
HARLAN  *      CLOUDY    48  37  66 S17G24    29.70S
LAMONI         SUNNY     44  39  82 S12       29.78F
RED OAK *      SUNNY     50  37  62 S24G31    29.69F
SHENANDOAH *   SUNNY     50  37  62 S23G35    29.70F
$$

IAZ047>049-059>061-072>074-084-052100-
   CENTRAL IOWA

CITY           SKY/WX    TMP DP  RH WIND       PRES   REMARKS
AMES           MOSUNNY   46  38  73 SE14      29.75F
ANKENY *       SUNNY     50 N/A N/A S20G25    29.77F
BOONE *        MOSUNNY   41  36  81 SE10      29.72F
CHARITON *       N/A     46  37  71 S15G22    29.79F
DES MOINES     PTSUNNY   49  34  56 S24       29.77F
GRINNELL*      MOSUNNY   37  36  98 SE12      29.83F WCI  29
KNOXVILLE *    SUNNY     46  36  66 S16       29.79S
MARSHALLTOWN   CLOUDY    35  35 100 SE16      29.80F FOG     WCI  25
NEWTON *       CLOUDY    41  36  81 S15       29.80S
PELLA *        SUNNY     46  37  69 S12       29.83S
PERRY *          N/A     49  40  72 S17       29.72F
$$

IAZ004>006-015-016-023>025-035-036-052100-
   NORTH CENTRAL IOWA

CITY           SKY/WX    TMP DP  RH WIND       PRES   REMARKS
ALGONA *       CLOUDY    45  37  76 S22G31    29.64F
CLARION *      MOSUNNY   37  37 100 SE20G26   29.70F WCI  27
ESTHERVILLE    CLOUDY    43  37  79 S23G33    29.57F
FORT DODGE *   MOSUNNY   45  36  70 S14G26    29.67F
MASON CITY     MOSUNNY   36  33  89 SE17G24   29.73F WCI  26
FOREST CITY *    N/A     37  36  93 S18G29    29.69F WCI  27
WEBSTER CITY * PTSUNNY   39  39 100 SE17G23   29.69F WCI  30
IOWA FALLS *   CLOUDY    36  34  94 SE20      29.76F FOG     WCI  25
$$

IAZ007>011-017>019-026>030-037>042-050>054-066-052100-
   NORTHEAST IOWA

CITY           SKY/WX    TMP DP  RH WIND       PRES   REMARKS
CEDAR RAPIDS   CLOUDY    32  32 100 S14       29.87F FOG     WCI  22
CHARLES CITY * CLOUDY    34  34 100 SE16      29.79F WCI  23
CLINTON *      CLOUDY    36  34  92 S7        29.94F WCI  30
DECORAH *      MOSUNNY   34  32  93 S16       29.82F WCI  23
DUBUQUE        LGT SNOW  31  31 100 S14       29.91R VSB 1   WCI  21
MONTICELLO *   CLOUDY    34  32  93 SE15G21   29.91R FOG     WCI  24
OELWEIN *      CLOUDY    34  34 100 S15G21    29.85S WCI  24
WATERLOO       CLOUDY    33  31  92 S14G25    29.82F WCI  23
$$

IAZ064-065-067-068-078-052100-
   EAST CENTRAL IOWA

CITY           SKY/WX    TMP DP  RH WIND       PRES   REMARKS
DAVENPORT      CLOUDY    34  32  92 S16       29.92F FOG     WCI  24
IOWA CITY      CLOUDY    35  33  92 SE9       29.91F FOG     WCI  28
MUSCATINE *    CLOUDY    36  34  93 SE7       29.91F FOG     WCI  30
QUAD CITIES    CLOUDY    36  33  89 SE10      29.93F FOG     WCI  28
$$

IAZ062-063-075>077-085>089-095>099-052100-
   SOUTHEAST IOWA

CITY           SKY/WX    TMP DP  RH WIND       PRES   REMARKS
BURLINGTON     CLOUDY    35  35 100 S9        29.91F FOG     WCI  28
FAIRFIELD *    MOSUNNY   39  36  87 SE13      29.86F WCI  32
FORT MADISON * CLOUDY    36  36 100 S6        29.91F FOG     WCI  31
KEOKUK *       CLOUDY    37  36  93 SE7       29.90F WCI  32
OSKALOOSA *      N/A     42  38  85 S14       29.84F
CENTERVILLE *    N/A     41  41 100 SE10      29.84F
OTTUMWA        SUNNY     43  37  79 S14       29.84F
WASHINGTON *   CLOUDY    36  34  93 S12       29.89F FOG     WCI  27
$$

ABBREVIATIONS USED IN REMARKS
   TC - TEMPERATURES IN CELSIUS
  WCI - WIND CHILL INDEX
   HX - HEAT INDEX
  VSB - VISIBILITY
$$





USA.gov is the U.S. government's official web portal to all federal, state and local government web resources and services.